New York, NY

1:40 AM EDT on April 23, 2017 (GMT -0400)
La Guardia

Weather History for KLGA - February, 2012

Change the Weather History Date:

Sunday, February 12, 2012

  Actual Average Record
Temperature  
Mean Temperature 27 °F 35 °F  
Max Temperature 33 °F 42 °F 58 °F (1984)
Min Temperature 21 °F 28 °F 4 °F (1979)
Degree Days  
Heating Degree Days 38 30  
Month to date heating degree days 297 371  
Since 1 July heating degree days 2426 2970  
Cooling Degree Days 0 0  
Month to date cooling degree days 0 0  
Year to date cooling degree days 0 0  
Moisture  
Dew Point 9 °F    
Average Humidity 49    
Maximum Humidity 63    
Minimum Humidity 35    
Precipitation  
Precipitation T in 0.09 in 1.59 in (2006)
Month to date precipitation 0.11 1.14  
Year to date precipitation 2.62 4.31  
Snow  
Snow T in 0.40 in 23.30 in (2006)
Month to date snowfall T 3.9  
Since 1 July snowfall 5.1 16.8  
Snow Depth 0.00 in    
Sea Level Pressure  
Sea Level Pressure 29.84 in    
Wind  
Wind Speed 19 mph (WNW)    
Max Wind Speed 32 mph    
Max Gust Speed 44 mph    
Visibility 10 miles    
Events Snow    
T = Trace of Precipitation, MM = Missing Value Source: NWS Daily Summary

Daily Weather History Graph

Daily Weather History Graph

Search for Another Location

Airport or City:

Trip Planner

Search our weather history database for the weather conditions in past years. The results will help you decide how hot, cold, wet, or windy it might be!

Date:

Astronomy

Feb. 12, 2012 Rise Set
Actual Time 6:54 AM EST 5:25 PM EST
Civil Twilight 6:25 AM EST 5:54 PM EST
Nautical Twilight 5:53 AM EST 6:26 PM EST
Astronomical Twilight 5:21 AM EST 6:58 PM EST
Moon 11:23 PM EST (2/12) 9:08 AM EST (2/12)
Length of Visible Light 11h 28m
Length of Day
10h 31m
Waning Gibbous, 72% of the Moon is Illuminated
Feb 12
Waning Gibbous
Feb 14
Last Quarter
Feb 21
New
Feb 29
First Quarter
Mar 8
Full

Hourly Weather History & Observations

Time (EST) Temp. Windchill Dew Point Humidity Pressure Visibility Wind Dir Wind Speed Gust Speed Precip Events Conditions
12:51 AM 32.0 °F 21.6 °F 21.0 °F 64% 29.68 in 10.0 mi NNW 15.0 mph 23.0 mph N/A   Overcast
1:51 AM 28.0 °F 13.3 °F 8.1 °F 43% 29.73 in 10.0 mi NW 25.3 mph 33.4 mph N/A   Mostly Cloudy
2:51 AM 25.0 °F 10.6 °F 1.9 °F 37% 29.76 in 10.0 mi NNW 20.7 mph 27.6 mph N/A   Mostly Cloudy
3:51 AM 23.0 °F 6.9 °F -0.0 °F 37% 29.80 in 10.0 mi NNW 24.2 mph 38.0 mph N/A   Mostly Cloudy
4:51 AM 21.9 °F 7.3 °F 3.9 °F 46% 29.82 in 10.0 mi NW 18.4 mph 27.6 mph N/A   Scattered Clouds
5:51 AM 21.9 °F 6.9 °F 5.0 °F 48% 29.83 in 10.0 mi NW 19.6 mph 26.5 mph N/A   Partly Cloudy
6:51 AM 21.9 °F 7.3 °F 8.1 °F 55% 29.85 in 10.0 mi NW 18.4 mph 24.2 mph N/A   Scattered Clouds
7:51 AM 23.0 °F 9.2 °F 8.1 °F 53% 29.86 in 10.0 mi WNW 17.3 mph - N/A   Scattered Clouds
8:51 AM 25.0 °F 11.7 °F 9.0 °F 51% 29.87 in 10.0 mi NW 17.3 mph 23.0 mph N/A   Mostly Cloudy
9:51 AM 26.1 °F 12.0 °F 9.0 °F 49% 29.86 in 10.0 mi WNW 20.7 mph 27.6 mph N/A   Mostly Cloudy
10:51 AM 28.9 °F 16.5 °F 10.0 °F 45% 29.84 in 10.0 mi WNW 18.4 mph 31.1 mph N/A   Mostly Cloudy
11:51 AM 30.0 °F 17.2 °F 10.9 °F 45% 29.82 in 10.0 mi WNW 20.7 mph 25.3 mph N/A   Mostly Cloudy
12:51 PM 30.0 °F 19.1 °F 9.0 °F 41% 29.80 in 10.0 mi West 15.0 mph 29.9 mph N/A   Mostly Cloudy
1:51 PM 33.1 °F 20.3 °F 8.1 °F 35% 29.78 in 10.0 mi WNW 24.2 mph 33.4 mph N/A   Mostly Cloudy
2:51 PM 32.0 °F 19.5 °F 10.0 °F 40% 29.78 in 10.0 mi West 21.9 mph 32.2 mph N/A   Mostly Cloudy
3:51 PM 30.9 °F 18.1 °F 10.9 °F 43% 29.80 in 10.0 mi West 21.9 mph - N/A   Overcast
4:51 PM 32.0 °F 20.8 °F 12.0 °F 44% 29.81 in 10.0 mi West 17.3 mph 27.6 mph N/A   Overcast
5:51 PM 30.0 °F 16.0 °F 18.0 °F 61% 29.86 in 5.0 mi WNW 25.3 mph 33.4 mph 0.00 in Snow Light Snow
6:51 PM 28.9 °F 14.8 °F 10.9 °F 47% 29.90 in 10.0 mi WNW 24.2 mph 33.4 mph 0.00 in   Scattered Clouds
7:51 PM 28.0 °F 14.6 °F 8.1 °F 43% 29.94 in 10.0 mi NW 20.7 mph 33.4 mph N/A   Partly Cloudy
8:51 PM 28.0 °F 15.7 °F 8.1 °F 43% 29.96 in 10.0 mi NW 17.3 mph 25.3 mph N/A   Mostly Cloudy
9:51 PM 28.0 °F 15.7 °F 10.0 °F 47% 29.97 in 10.0 mi NW 17.3 mph - N/A   Scattered Clouds
10:51 PM 28.0 °F 18.6 °F 9.0 °F 45% 29.98 in 10.0 mi WNW 10.4 mph 19.6 mph N/A   Mostly Cloudy
11:51 PM 28.9 °F 20.4 °F 10.0 °F 45% 29.98 in 10.0 mi West 9.2 mph - N/A   Overcast